Find Beidou DSW 3

NORAD ID: 27813 Int'l Des: 2003-021 Owner: CNSA Country: CN Constellation: BeiDou operational
HEOCIRCULAR

Current View

Loading 3D Globe...

About Beidou DSW 3

Description loading...

Upcoming Passes

Passes for default location (London). Set your location on the main map for personalized predictions.

Altitude History

Loading altitude history...

Two-Line Element Set

1 27813U 03021A 26151.21396139 -.00000215 00000-0 00000+0 0 9994
2 27813 11.3456 41.3575 0018634 307.7574 264.9105 0.99770949 84130
Epoch: May 31, 2026 • Age: 17 hours

Current Status

Altitude 36001.4 km
Velocity 3.06 km/s
Sub-Earth Point 10.62°N, 72.56°W
Launch Date May 24, 2003
Age 23 years
Type navigation

Technical Details

Classification Payload
Mass 2325.00 kg
Dry Mass 1300.00 kg
Total Mass 2325.00 kg
Length 3.00 m
Diameter 1.70 m
Span 18.00 m
Shape Box + 2 Pan
Manufacturer CAST
Bus Type DFH-3
Phase Status In Orbit
Owner/State CNSA/CN

Most Searched